owner,sensor,date,latitude,longitude,vertical_datum,wind_speed,wind_to_direction,wind_speed_of_gust,qcFlag 
TCOON,ioos:station:TCOON:003:1,2011-01-01T00:00:00Z,26.8015,-97.4706,0.0,4.2,360.0,5.2,'11111222,11144222,11111222' 
TCOON,ioos:station:TCOON:003:1,2011-01-01T01:00:00Z,26.8015,-97.4706,0.0,2.8,31.0,3.0,'11111222,11111222,11111222' 
TCOON,ioos:station:TCOON:003:1,2011-01-01T02:00:00Z,26.8015,-97.4706,0.0,6.0,4.0,7.2,'11111222,11111222,11111222' 
TCOON,ioos:station:TCOON:003:1,2011-01-01T03:00:00Z,26.8015,-97.4706,0.0,6.9,20.0,8.2,'11111222,11111222,11111222' 
TCOON,ioos:station:TCOON:003:1,2011-01-01T04:00:00Z,26.8015,-97.4706,0.0,6.4,17.0,7.3,'11111222,11111222,11111222' 
TCOON,ioos:station:TCOON:003:1,2011-01-01T05:00:00Z,26.8015,-97.4706,0.0,6.2,22.0,7.3,'11111222,11111222,11111222' 
TCOON,ioos:station:TCOON:003:1,2011-01-01T06:00:00Z,26.8015,-97.4706,0.0,6.0,27.0,7.5,'11111222,11111222,11111222' 
TCOON,ioos:station:TCOON:003:1,2011-01-01T07:00:00Z,26.8015,-97.4706,0.0,5.7,19.0,6.9,'11111222,11111222,11111222' 
TCOON,ioos:station:TCOON:003:1,2011-01-01T08:00:00Z,26.8015,-97.4706,0.0,6.8,1.0,7.9,'11111222,11111222,11111222' 
TCOON,ioos:station:TCOON:003:1,2011-01-01T09:00:00Z,26.8015,-97.4706,0.0,9.3,351.0,11.2,'11111222,11111222,11111222' 
TCOON,ioos:station:TCOON:003:1,2011-01-01T10:00:00Z,26.8015,-97.4706,0.0,10.6,356.0,12.3,'11111222,11111222,11111222' 
TCOON,ioos:station:TCOON:003:1,2011-01-01T11:00:00Z,26.8015,-97.4706,0.0,13.1,2.0,16.6,'11111222,11111222,11111222' 
TCOON,ioos:station:TCOON:003:1,2011-01-01T12:00:00Z,26.8015,-97.4706,0.0,11.1,355.0,12.9,'11111222,11111222,11111222' 
TCOON,ioos:station:TCOON:003:1,2011-01-01T13:00:00Z,26.8015,-97.4706,0.0,9.8,2.0,11.1,'11111222,11111222,11111222' 
TCOON,ioos:station:TCOON:003:1,2011-01-01T14:00:00Z,26.8015,-97.4706,0.0,11.6,357.0,13.9,'11111222,11111222,11111222' 
TCOON,ioos:station:TCOON:003:1,2011-01-01T15:00:00Z,26.8015,-97.4706,0.0,11.4,359.0,13.3,'11111222,11111222,11111222' 
TCOON,ioos:station:TCOON:003:1,2011-01-01T16:00:00Z,26.8015,-97.4706,0.0,10.1,357.0,12.2,'11111222,11111222,11111222' 
TCOON,ioos:station:TCOON:003:1,2011-01-01T17:00:00Z,26.8015,-97.4706,0.0,11.0,3.0,12.7,'11111222,11111222,11111222' 
TCOON,ioos:station:TCOON:003:1,2011-01-01T18:00:00Z,26.8015,-97.4706,0.0,11.5,358.0,14.8,'11111222,11111222,11111222' 
TCOON,ioos:station:TCOON:003:1,2011-01-01T19:00:00Z,26.8015,-97.4706,0.0,9.4,7.0,11.5,'11111222,11111222,11111222' 
TCOON,ioos:station:TCOON:003:1,2011-01-01T20:00:00Z,26.8015,-97.4706,0.0,9.0,12.0,11.1,'11111222,11111222,11111222' 
TCOON,ioos:station:TCOON:003:1,2011-01-01T21:00:00Z,26.8015,-97.4706,0.0,7.6,25.0,9.1,'11111222,11111222,11111222' 
TCOON,ioos:station:TCOON:003:1,2011-01-01T22:00:00Z,26.8015,-97.4706,0.0,7.0,23.0,9.0,'11111222,11111222,11111222' 
TCOON,ioos:station:TCOON:003:1,2011-01-01T23:00:00Z,26.8015,-97.4706,0.0,6.5,33.0,7.8,'11111222,11111222,11111222' 
TCOON,ioos:station:TCOON:003:1,2011-01-02T00:00:00Z,26.8015,-97.4706,0.0,4.7,33.0,6.0,'11111222,11111222,11111222' 
TCOON,ioos:station:TCOON:003:1,2011-01-02T01:00:00Z,26.8015,-97.4706,0.0,4.5,25.0,5.2,'11111222,11111222,11111222' 
TCOON,ioos:station:TCOON:003:1,2011-01-02T02:00:00Z,26.8015,-97.4706,0.0,4.7,29.0,5.9,'11111222,11111222,11111222' 
TCOON,ioos:station:TCOON:003:1,2011-01-02T03:00:00Z,26.8015,-97.4706,0.0,5.2,24.0,5.9,'11111222,11111222,11111222' 
TCOON,ioos:station:TCOON:003:1,2011-01-02T04:00:00Z,26.8015,-97.4706,0.0,4.8,11.0,6.1,'11111222,11111222,11111222' 
TCOON,ioos:station:TCOON:003:1,2011-01-02T05:00:00Z,26.8015,-97.4706,0.0,4.6,5.0,5.5,'11111222,11111222,11111222' 
TCOON,ioos:station:TCOON:003:1,2011-01-02T06:00:00Z,26.8015,-97.4706,0.0,4.3,340.0,4.8,'11111222,11111222,11111222' 
TCOON,ioos:station:TCOON:003:1,2011-01-02T07:00:00Z,26.8015,-97.4706,0.0,6.7,352.0,7.9,'11111222,11111222,11111222' 
TCOON,ioos:station:TCOON:003:1,2011-01-02T08:00:00Z,26.8015,-97.4706,0.0,5.7,352.0,6.6,'11111222,11111222,11111222' 
TCOON,ioos:station:TCOON:003:1,2011-01-02T09:00:00Z,26.8015,-97.4706,0.0,5.3,352.0,6.3,'11111222,11111222,11111222' 
TCOON,ioos:station:TCOON:003:1,2011-01-02T10:00:00Z,26.8015,-97.4706,0.0,4.7,2.0,5.5,'11111222,11111222,11111222' 
TCOON,ioos:station:TCOON:003:1,2011-01-02T11:00:00Z,26.8015,-97.4706,0.0,5.3,17.0,6.3,'11111222,11111222,11111222' 
TCOON,ioos:station:TCOON:003:1,2011-01-02T12:00:00Z,26.8015,-97.4706,0.0,5.5,22.0,6.4,'11111222,11111222,11111222' 
TCOON,ioos:station:TCOON:003:1,2011-01-02T13:00:00Z,26.8015,-97.4706,0.0,4.7,24.0,5.5,'11111222,11111222,11111222' 
TCOON,ioos:station:TCOON:003:1,2011-01-02T14:00:00Z,26.8015,-97.4706,0.0,6.3,32.0,8.1,'11111222,11111222,11111222' 
TCOON,ioos:station:TCOON:003:1,2011-01-02T15:00:00Z,26.8015,-97.4706,0.0,7.2,29.0,8.9,'11111222,11111222,11111222' 
TCOON,ioos:station:TCOON:003:1,2011-01-02T16:00:00Z,26.8015,-97.4706,0.0,6.7,32.0,8.6,'11111222,11111222,11111222' 
TCOON,ioos:station:TCOON:003:1,2011-01-02T17:00:00Z,26.8015,-97.4706,0.0,5.7,42.0,7.2,'11111222,11111222,11111222' 
TCOON,ioos:station:TCOON:003:1,2011-01-02T18:00:00Z,26.8015,-97.4706,0.0,5.1,65.0,7.1,'11111222,11111222,11111222' 
TCOON,ioos:station:TCOON:003:1,2011-01-02T19:00:00Z,26.8015,-97.4706,0.0,5.9,54.0,8.2,'11111222,11111222,11111222' 
TCOON,ioos:station:TCOON:003:1,2011-01-02T20:00:00Z,26.8015,-97.4706,0.0,4.1,74.0,6.7,'11111222,11111222,11111222' 
TCOON,ioos:station:TCOON:003:1,2011-01-02T21:00:00Z,26.8015,-97.4706,0.0,5.8,51.0,8.1,'11111222,11111222,11111222' 
TCOON,ioos:station:TCOON:003:1,2011-01-02T22:00:00Z,26.8015,-97.4706,0.0,5.9,52.0,7.2,'11111222,11111222,11111222' 
TCOON,ioos:station:TCOON:003:1,2011-01-02T23:00:00Z,26.8015,-97.4706,0.0,5.0,54.0,6.0,'11111222,11111222,11111222' 
TCOON,ioos:station:TCOON:003:1,2011-01-03T00:00:00Z,26.8015,-97.4706,0.0,2.6,47.0,3.0,'11111222,11111222,11111222' 
TCOON,ioos:station:TCOON:003:1,2011-01-03T01:00:00Z,26.8015,-97.4706,0.0,2.7,45.0,3.2,'11111222,11111222,11111222' 
TCOON,ioos:station:TCOON:003:1,2011-01-03T02:00:00Z,26.8015,-97.4706,0.0,2.9,46.0,3.4,'11111222,11111222,11111222' 
TCOON,ioos:station:TCOON:003:1,2011-01-03T03:00:00Z,26.8015,-97.4706,0.0,2.6,66.0,2.9,'11111222,11111222,11111222' 
TCOON,ioos:station:TCOON:003:1,2011-01-03T04:00:00Z,26.8015,-97.4706,0.0,3.3,95.0,4.0,'11111222,11111222,11111222' 
TCOON,ioos:station:TCOON:003:1,2011-01-03T05:00:00Z,26.8015,-97.4706,0.0,3.8,82.0,4.3,'11111222,11111222,11111222' 
TCOON,ioos:station:TCOON:003:1,2011-01-03T06:00:00Z,26.8015,-97.4706,0.0,4.2,91.0,5.2,'11111222,11111222,11111222' 
TCOON,ioos:station:TCOON:003:1,2011-01-03T07:00:00Z,26.8015,-97.4706,0.0,5.4,91.0,6.3,'11111222,11111222,11111222' 
TCOON,ioos:station:TCOON:003:1,2011-01-03T08:00:00Z,26.8015,-97.4706,0.0,6.2,101.0,7.5,'11111222,11111222,11111222' 
TCOON,ioos:station:TCOON:003:1,2011-01-03T09:00:00Z,26.8015,-97.4706,0.0,6.0,105.0,7.0,'11111222,11111222,11111222' 
TCOON,ioos:station:TCOON:003:1,2011-01-03T10:00:00Z,26.8015,-97.4706,0.0,5.7,105.0,7.3,'11111222,11111222,11111222' 
TCOON,ioos:station:TCOON:003:1,2011-01-03T11:00:00Z,26.8015,-97.4706,0.0,5.8,103.0,7.0,'11111222,11111222,11111222' 
TCOON,ioos:station:TCOON:003:1,2011-01-03T12:00:00Z,26.8015,-97.4706,0.0,5.1,97.0,6.3,'11111222,11111222,11111222' 
TCOON,ioos:station:TCOON:003:1,2011-01-03T13:00:00Z,26.8015,-97.4706,0.0,5.8,103.0,6.8,'11111222,11111222,11111222' 
TCOON,ioos:station:TCOON:003:1,2011-01-03T14:00:00Z,26.8015,-97.4706,0.0,6.8,109.0,8.3,'11111222,11111222,11111222' 
TCOON,ioos:station:TCOON:003:1,2011-01-03T15:00:00Z,26.8015,-97.4706,0.0,7.7,109.0,9.5,'11111222,11111222,11111222' 
TCOON,ioos:station:TCOON:003:1,2011-01-03T16:00:00Z,26.8015,-97.4706,0.0,6.7,123.0,8.2,'11111222,11111222,11111222' 
TCOON,ioos:station:TCOON:003:1,2011-01-03T17:00:00Z,26.8015,-97.4706,0.0,6.4,122.0,7.9,'11111222,11111222,11111222' 
TCOON,ioos:station:TCOON:003:1,2011-01-03T18:00:00Z,26.8015,-97.4706,0.0,6.4,128.0,7.5,'11111222,11111222,11111222' 
TCOON,ioos:station:TCOON:003:1,2011-01-03T19:00:00Z,26.8015,-97.4706,0.0,8.0,127.0,9.1,'11111222,11111222,11111222' 
TCOON,ioos:station:TCOON:003:1,2011-01-03T20:00:00Z,26.8015,-97.4706,0.0,6.7,123.0,8.2,'11111222,11111222,11111222' 
TCOON,ioos:station:TCOON:003:1,2011-01-03T21:00:00Z,26.8015,-97.4706,0.0,6.5,130.0,7.8,'11111222,11111222,11111222' 
TCOON,ioos:station:TCOON:003:1,2011-01-03T22:00:00Z,26.8015,-97.4706,0.0,6.0,123.0,6.7,'11111222,11111222,11111222' 
TCOON,ioos:station:TCOON:003:1,2011-01-03T23:00:00Z,26.8015,-97.4706,0.0,5.9,126.0,7.3,'11111222,11111222,11111222' 
TCOON,ioos:station:TCOON:003:1,2011-01-04T00:00:00Z,26.8015,-97.4706,0.0,5.8,120.0,6.6,'11111222,11111222,11111222' 
TCOON,ioos:station:TCOON:003:1,2011-01-04T01:00:00Z,26.8015,-97.4706,0.0,5.2,122.0,5.9,'11111222,11111222,11111222' 
TCOON,ioos:station:TCOON:003:1,2011-01-04T02:00:00Z,26.8015,-97.4706,0.0,4.0,127.0,4.8,'11111222,11111222,11111222' 
TCOON,ioos:station:TCOON:003:1,2011-01-04T03:00:00Z,26.8015,-97.4706,0.0,4.3,124.0,4.9,'11111222,11111222,11111222' 
TCOON,ioos:station:TCOON:003:1,2011-01-04T04:00:00Z,26.8015,-97.4706,0.0,3.7,139.0,4.5,'11111222,11111222,11111222' 
TCOON,ioos:station:TCOON:003:1,2011-01-04T05:00:00Z,26.8015,-97.4706,0.0,3.1,146.0,3.4,'11111222,11111222,11111222' 
TCOON,ioos:station:TCOON:003:1,2011-01-04T06:00:00Z,26.8015,-97.4706,0.0,4.9,117.0,5.8,'11111222,11111222,11111222' 
TCOON,ioos:station:TCOON:003:1,2011-01-04T07:00:00Z,26.8015,-97.4706,0.0,5.9,123.0,6.6,'11111222,11111222,11111222' 
TCOON,ioos:station:TCOON:003:1,2011-01-04T08:00:00Z,26.8015,-97.4706,0.0,4.3,125.0,4.7,'11111222,11111222,11111222' 
TCOON,ioos:station:TCOON:003:1,2011-01-04T09:00:00Z,26.8015,-97.4706,0.0,3.8,109.0,4.3,'11111222,11111222,11111222' 
TCOON,ioos:station:TCOON:003:1,2011-01-04T10:00:00Z,26.8015,-97.4706,0.0,3.3,86.0,3.6,'11111222,11111222,11111222' 
TCOON,ioos:station:TCOON:003:1,2011-01-04T11:00:00Z,26.8015,-97.4706,0.0,2.7,75.0,3.2,'11111222,11111222,11111222' 
TCOON,ioos:station:TCOON:003:1,2011-01-04T12:00:00Z,26.8015,-97.4706,0.0,3.4,97.0,3.9,'11111222,11111222,11111222' 
TCOON,ioos:station:TCOON:003:1,2011-01-04T13:00:00Z,26.8015,-97.4706,0.0,4.7,116.0,5.1,'11111222,11111222,11111222' 
TCOON,ioos:station:TCOON:003:1,2011-01-04T14:00:00Z,26.8015,-97.4706,0.0,4.5,124.0,5.3,'11111222,11111222,11111222' 
TCOON,ioos:station:TCOON:003:1,2011-01-04T15:00:00Z,26.8015,-97.4706,0.0,5.8,132.0,6.9,'11111222,11111222,11111222' 
TCOON,ioos:station:TCOON:003:1,2011-01-04T16:00:00Z,26.8015,-97.4706,0.0,5.7,135.0,6.5,'11111222,11111222,11111222' 
TCOON,ioos:station:TCOON:003:1,2011-01-04T17:00:00Z,26.8015,-97.4706,0.0,6.6,131.0,7.7,'11111222,11111222,11111222' 
TCOON,ioos:station:TCOON:003:1,2011-01-04T18:00:00Z,26.8015,-97.4706,0.0,7.1,140.0,8.3,'11111222,11111222,11111222' 
TCOON,ioos:station:TCOON:003:1,2011-01-04T19:00:00Z,26.8015,-97.4706,0.0,5.9,157.0,7.0,'11111222,11111222,11111222' 
TCOON,ioos:station:TCOON:003:1,2011-01-04T20:00:00Z,26.8015,-97.4706,0.0,7.5,157.0,8.4,'11111222,11111222,11111222' 
TCOON,ioos:station:TCOON:003:1,2011-01-04T21:00:00Z,26.8015,-97.4706,0.0,7.4,159.0,8.8,'11111222,11111222,11111222' 
TCOON,ioos:station:TCOON:003:1,2011-01-04T22:00:00Z,26.8015,-97.4706,0.0,8.8,149.0,9.6,'11111222,11111222,11111222' 
TCOON,ioos:station:TCOON:003:1,2011-01-04T23:00:00Z,26.8015,-97.4706,0.0,8.2,154.0,9.3,'11111222,11111222,11111222' 
TCOON,ioos:station:TCOON:003:1,2011-01-05T00:00:00Z,26.8015,-97.4706,0.0,7.3,156.0,8.4,'11111222,11111222,11111222' 
TCOON,ioos:station:TCOON:003:1,2011-01-05T01:00:00Z,26.8015,-97.4706,0.0,7.7,150.0,8.3,'11111222,11111222,11111222' 
TCOON,ioos:station:TCOON:003:1,2011-01-05T02:00:00Z,26.8015,-97.4706,0.0,5.9,160.0,6.8,'11111222,11111222,11111222' 
TCOON,ioos:station:TCOON:003:1,2011-01-05T03:00:00Z,26.8015,-97.4706,0.0,4.5,163.0,5.1,'11111222,11111222,11111222' 
TCOON,ioos:station:TCOON:003:1,2011-01-05T04:00:00Z,26.8015,-97.4706,0.0,6.2,165.0,6.8,'11111222,11111222,11111222' 
TCOON,ioos:station:TCOON:003:1,2011-01-05T05:00:00Z,26.8015,-97.4706,0.0,3.2,160.0,3.7,'11111222,11111222,11111222' 
TCOON,ioos:station:TCOON:003:1,2011-01-05T06:00:00Z,26.8015,-97.4706,0.0,3.4,168.0,3.6,'11111222,11111222,11111222' 
TCOON,ioos:station:TCOON:003:1,2011-01-05T07:00:00Z,26.8015,-97.4706,0.0,5.0,157.0,5.4,'11111222,11111222,11111222' 
TCOON,ioos:station:TCOON:003:1,2011-01-05T08:00:00Z,26.8015,-97.4706,0.0,4.9,160.0,5.2,'11111222,11111222,11111222' 
TCOON,ioos:station:TCOON:003:1,2011-01-05T09:00:00Z,26.8015,-97.4706,0.0,4.8,161.0,5.4,'11111222,11111222,11111222' 
TCOON,ioos:station:TCOON:003:1,2011-01-05T10:00:00Z,26.8015,-97.4706,0.0,3.5,159.0,3.7,'11111222,11111222,11111222' 
TCOON,ioos:station:TCOON:003:1,2011-01-05T11:00:00Z,26.8015,-97.4706,0.0,1.1,131.0,1.3,'11111222,11111222,11111222' 
TCOON,ioos:station:TCOON:003:1,2011-01-05T12:00:00Z,26.8015,-97.4706,0.0,0.7,140.0,0.8,'11111222,11111222,11111222' 
TCOON,ioos:station:TCOON:003:1,2011-01-05T13:00:00Z,26.8015,-97.4706,0.0,1.1,317.0,1.2,'11111222,11111222,11111222' 
TCOON,ioos:station:TCOON:003:1,2011-01-05T14:00:00Z,26.8015,-97.4706,0.0,1.3,222.0,1.4,'11111222,11111222,11111222' 
TCOON,ioos:station:TCOON:003:1,2011-01-05T15:00:00Z,26.8015,-97.4706,0.0,3.7,210.0,4.3,'11111222,11111222,11111222' 
TCOON,ioos:station:TCOON:003:1,2011-01-05T16:00:00Z,26.8015,-97.4706,0.0,4.5,221.0,5.6,'11111222,11111222,11111222' 
TCOON,ioos:station:TCOON:003:1,2011-01-05T17:00:00Z,26.8015,-97.4706,0.0,5.9,307.0,6.9,'11111222,11111222,11111222' 
TCOON,ioos:station:TCOON:003:1,2011-01-05T18:00:00Z,26.8015,-97.4706,0.0,5.5,329.0,6.7,'11111222,11111222,11111222' 
TCOON,ioos:station:TCOON:003:1,2011-01-05T19:00:00Z,26.8015,-97.4706,0.0,6.8,329.0,9.1,'11111222,11111222,11111222' 
TCOON,ioos:station:TCOON:003:1,2011-01-05T20:00:00Z,26.8015,-97.4706,0.0,7.8,355.0,9.0,'11111222,11111222,11111222' 
TCOON,ioos:station:TCOON:003:1,2011-01-05T21:00:00Z,26.8015,-97.4706,0.0,4.9,22.0,5.6,'11111222,11111222,11111222' 
TCOON,ioos:station:TCOON:003:1,2011-01-05T22:00:00Z,26.8015,-97.4706,0.0,3.9,17.0,4.4,'11111222,11111222,11111222' 
TCOON,ioos:station:TCOON:003:1,2011-01-05T23:00:00Z,26.8015,-97.4706,0.0,3.4,55.0,3.9,'11111222,11111222,11111222' 
TCOON,ioos:station:TCOON:003:1,2011-01-06T00:00:00Z,26.8015,-97.4706,0.0,3.4,72.0,4.1,'11111222,11111222,11111222' 
TCOON,ioos:station:TCOON:003:1,2011-01-06T01:00:00Z,26.8015,-97.4706,0.0,1.7,53.0,2.0,'11111222,11111222,11111222' 
TCOON,ioos:station:TCOON:003:1,2011-01-06T02:00:00Z,26.8015,-97.4706,0.0,1.4,105.0,1.7,'11111222,11111222,11111222' 
TCOON,ioos:station:TCOON:003:1,2011-01-06T03:00:00Z,26.8015,-97.4706,0.0,1.1,57.0,1.3,'11111222,11111222,11111222' 
TCOON,ioos:station:TCOON:003:1,2011-01-06T04:00:00Z,26.8015,-97.4706,0.0,0.0,64.0,99.0,'11111222,11111222,11144222' 
TCOON,ioos:station:TCOON:003:1,2011-01-06T05:00:00Z,26.8015,-97.4706,0.0,1.6,295.0,1.8,'11111222,11111222,11111222' 
TCOON,ioos:station:TCOON:003:1,2011-01-06T06:00:00Z,26.8015,-97.4706,0.0,3.0,310.0,3.3,'11111222,11111222,11111222' 
TCOON,ioos:station:TCOON:003:1,2011-01-06T07:00:00Z,26.8015,-97.4706,0.0,2.9,300.0,3.3,'11111222,11111222,11111222' 
TCOON,ioos:station:TCOON:003:1,2011-01-06T08:00:00Z,26.8015,-97.4706,0.0,4.2,295.0,4.8,'11111222,11111222,11111222' 
TCOON,ioos:station:TCOON:003:1,2011-01-06T09:00:00Z,26.8015,-97.4706,0.0,2.7,293.0,3.4,'11111222,11111222,11111222' 
TCOON,ioos:station:TCOON:003:1,2011-01-06T10:00:00Z,26.8015,-97.4706,0.0,3.9,329.0,4.3,'11111222,11111222,11111222' 
TCOON,ioos:station:TCOON:003:1,2011-01-06T11:00:00Z,26.8015,-97.4706,0.0,2.6,318.0,3.0,'11111222,11111222,11111222' 
TCOON,ioos:station:TCOON:003:1,2011-01-06T12:00:00Z,26.8015,-97.4706,0.0,3.3,332.0,3.7,'11111222,11111222,11111222' 
TCOON,ioos:station:TCOON:003:1,2011-01-06T13:00:00Z,26.8015,-97.4706,0.0,3.2,329.0,4.2,'11111222,11111222,11111222' 
TCOON,ioos:station:TCOON:003:1,2011-01-06T14:00:00Z,26.8015,-97.4706,0.0,3.3,341.0,3.8,'11111222,11111222,11111222' 
TCOON,ioos:station:TCOON:003:1,2011-01-06T15:00:00Z,26.8015,-97.4706,0.0,4.1,351.0,4.6,'11111222,11111222,11111222' 
TCOON,ioos:station:TCOON:003:1,2011-01-06T16:00:00Z,26.8015,-97.4706,0.0,4.7,21.0,5.3,'11111222,11111222,11111222' 
TCOON,ioos:station:TCOON:003:1,2011-01-06T17:00:00Z,26.8015,-97.4706,0.0,4.9,19.0,6.3,'11111222,11111222,11111222' 
TCOON,ioos:station:TCOON:003:1,2011-01-06T18:00:00Z,26.8015,-97.4706,0.0,3.0,43.0,4.0,'11111222,11111222,11111222' 
TCOON,ioos:station:TCOON:003:1,2011-01-06T19:00:00Z,26.8015,-97.4706,0.0,5.7,39.0,6.8,'11111222,11111222,11111222' 
TCOON,ioos:station:TCOON:003:1,2011-01-06T20:00:00Z,26.8015,-97.4706,0.0,2.8,43.0,4.1,'11111222,11111222,11111222' 
TCOON,ioos:station:TCOON:003:1,2011-01-06T22:00:00Z,26.8015,-97.4706,0.0,4.8,50.0,6.0,'11111222,11111222,11111222' 
TCOON,ioos:station:TCOON:003:1,2011-01-06T23:00:00Z,26.8015,-97.4706,0.0,3.8,58.0,4.5,'11111222,11111222,11111222' 
TCOON,ioos:station:TCOON:003:1,2011-01-07T00:00:00Z,26.8015,-97.4706,0.0,3.1,74.0,3.9,'11111222,11111222,11111222' 
TCOON,ioos:station:TCOON:003:1,2011-01-07T01:00:00Z,26.8015,-97.4706,0.0,4.1,112.0,4.4,'11111222,11111222,11111222' 
TCOON,ioos:station:TCOON:003:1,2011-01-07T02:00:00Z,26.8015,-97.4706,0.0,3.6,126.0,4.3,'11111222,11111222,11111222' 
TCOON,ioos:station:TCOON:003:1,2011-01-07T03:00:00Z,26.8015,-97.4706,0.0,3.8,132.0,4.3,'11111222,11111222,11111222' 
TCOON,ioos:station:TCOON:003:1,2011-01-07T04:00:00Z,26.8015,-97.4706,0.0,3.2,128.0,3.6,'11111222,11111222,11111222' 
TCOON,ioos:station:TCOON:003:1,2011-01-07T05:00:00Z,26.8015,-97.4706,0.0,3.4,122.0,3.7,'11111222,11111222,11111222' 
TCOON,ioos:station:TCOON:003:1,2011-01-07T06:00:00Z,26.8015,-97.4706,0.0,3.4,138.0,3.7,'11111222,11111222,11111222' 
TCOON,ioos:station:TCOON:003:1,2011-01-07T07:00:00Z,26.8015,-97.4706,0.0,2.6,142.0,3.1,'11111222,11111222,11111222' 
TCOON,ioos:station:TCOON:003:1,2011-01-07T08:00:00Z,26.8015,-97.4706,0.0,1.6,243.0,2.0,'11111222,11111222,11111222' 
TCOON,ioos:station:TCOON:003:1,2011-01-07T09:00:00Z,26.8015,-97.4706,0.0,1.2,285.0,1.6,'11111222,11111222,11111222' 
TCOON,ioos:station:TCOON:003:1,2011-01-07T10:00:00Z,26.8015,-97.4706,0.0,1.8,278.0,2.1,'11111222,11111222,11111222' 
TCOON,ioos:station:TCOON:003:1,2011-01-07T11:00:00Z,26.8015,-97.4706,0.0,1.3,276.0,1.6,'11111222,11111222,11111222' 
TCOON,ioos:station:TCOON:003:1,2011-01-07T12:00:00Z,26.8015,-97.4706,0.0,0.9,267.0,1.0,'11111222,11111222,11111222' 
TCOON,ioos:station:TCOON:003:1,2011-01-07T13:00:00Z,26.8015,-97.4706,0.0,1.3,229.0,1.8,'11111222,11111222,11111222' 
TCOON,ioos:station:TCOON:003:1,2011-01-07T14:00:00Z,26.8015,-97.4706,0.0,0.7,166.0,0.9,'11111222,11111222,11111222' 
TCOON,ioos:station:TCOON:003:1,2011-01-07T15:00:00Z,26.8015,-97.4706,0.0,2.9,135.0,3.4,'11111222,11111222,11111222' 
TCOON,ioos:station:TCOON:003:1,2011-01-07T16:00:00Z,26.8015,-97.4706,0.0,4.2,130.0,4.7,'11111222,11111222,11111222' 
TCOON,ioos:station:TCOON:003:1,2011-01-07T17:00:00Z,26.8015,-97.4706,0.0,5.1,137.0,6.3,'11111222,11111222,11111222' 
TCOON,ioos:station:TCOON:003:1,2011-01-07T18:00:00Z,26.8015,-97.4706,0.0,5.9,135.0,7.3,'11111222,11111222,11111222' 
TCOON,ioos:station:TCOON:003:1,2011-01-07T19:00:00Z,26.8015,-97.4706,0.0,6.2,142.0,7.5,'11111222,11111222,11111222' 
TCOON,ioos:station:TCOON:003:1,2011-01-07T20:00:00Z,26.8015,-97.4706,0.0,7.5,149.0,8.9,'11111222,11111222,11111222' 
TCOON,ioos:station:TCOON:003:1,2011-01-07T21:00:00Z,26.8015,-97.4706,0.0,8.1,148.0,9.5,'11111222,11111222,11111222' 
TCOON,ioos:station:TCOON:003:1,2011-01-07T22:00:00Z,26.8015,-97.4706,0.0,7.9,152.0,9.4,'11111222,11111222,11111222' 
TCOON,ioos:station:TCOON:003:1,2011-01-07T23:00:00Z,26.8015,-97.4706,0.0,8.6,154.0,10.3,'11111222,11111222,11111222' 
TCOON,ioos:station:TCOON:003:1,2011-01-08T00:00:00Z,26.8015,-97.4706,0.0,7.7,145.0,9.0,'11111222,11111222,11111222' 
TCOON,ioos:station:TCOON:003:1,2011-01-08T01:00:00Z,26.8015,-97.4706,0.0,7.7,147.0,9.0,'11111222,11111222,11111222' 
TCOON,ioos:station:TCOON:003:1,2011-01-08T02:00:00Z,26.8015,-97.4706,0.0,4.8,125.0,5.7,'11111222,11111222,11111222' 
TCOON,ioos:station:TCOON:003:1,2011-01-08T03:00:00Z,26.8015,-97.4706,0.0,4.6,129.0,5.5,'11111222,11111222,11111222' 
TCOON,ioos:station:TCOON:003:1,2011-01-08T04:00:00Z,26.8015,-97.4706,0.0,4.6,141.0,5.5,'11111222,11111222,11111222' 
TCOON,ioos:station:TCOON:003:1,2011-01-08T05:00:00Z,26.8015,-97.4706,0.0,4.6,148.0,5.1,'11111222,11111222,11111222' 
TCOON,ioos:station:TCOON:003:1,2011-01-08T06:00:00Z,26.8015,-97.4706,0.0,4.2,155.0,4.7,'11111222,11111222,11111222' 
TCOON,ioos:station:TCOON:003:1,2011-01-08T07:00:00Z,26.8015,-97.4706,0.0,3.4,137.0,4.2,'11111222,11111222,11111222' 
TCOON,ioos:station:TCOON:003:1,2011-01-08T08:00:00Z,26.8015,-97.4706,0.0,3.3,125.0,3.7,'11111222,11111222,11111222' 
TCOON,ioos:station:TCOON:003:1,2011-01-08T09:00:00Z,26.8015,-97.4706,0.0,2.6,123.0,3.1,'11111222,11111222,11111222' 
TCOON,ioos:station:TCOON:003:1,2011-01-08T10:00:00Z,26.8015,-97.4706,0.0,3.8,112.0,4.4,'11111222,11111222,11111222' 
TCOON,ioos:station:TCOON:003:1,2011-01-08T11:00:00Z,26.8015,-97.4706,0.0,1.2,59.0,1.9,'11111222,11111222,11111222' 
TCOON,ioos:station:TCOON:003:1,2011-01-08T12:00:00Z,26.8015,-97.4706,0.0,1.0,81.0,1.1,'11111222,11111222,11111222' 
TCOON,ioos:station:TCOON:003:1,2011-01-08T13:00:00Z,26.8015,-97.4706,0.0,2.6,35.0,3.2,'11111222,11111222,11111222' 
TCOON,ioos:station:TCOON:003:1,2011-01-08T14:00:00Z,26.8015,-97.4706,0.0,4.1,114.0,4.7,'11111222,11111222,11111222' 
TCOON,ioos:station:TCOON:003:1,2011-01-08T15:00:00Z,26.8015,-97.4706,0.0,2.4,123.0,2.9,'11111222,11111222,11111222' 
TCOON,ioos:station:TCOON:003:1,2011-01-08T16:00:00Z,26.8015,-97.4706,0.0,1.1,167.0,1.3,'11111222,11111222,11111222' 
TCOON,ioos:station:TCOON:003:1,2011-01-08T17:00:00Z,26.8015,-97.4706,0.0,2.9,164.0,3.4,'11111222,11111222,11111222' 
TCOON,ioos:station:TCOON:003:1,2011-01-08T18:00:00Z,26.8015,-97.4706,0.0,5.5,108.0,7.1,'11111222,11111222,11111222' 
TCOON,ioos:station:TCOON:003:1,2011-01-08T19:00:00Z,26.8015,-97.4706,0.0,5.5,114.0,6.7,'11111222,11111222,11111222' 
TCOON,ioos:station:TCOON:003:1,2011-01-08T20:00:00Z,26.8015,-97.4706,0.0,6.4,108.0,7.6,'11111222,11111222,11111222' 
TCOON,ioos:station:TCOON:003:1,2011-01-08T21:00:00Z,26.8015,-97.4706,0.0,6.8,115.0,7.7,'11111222,11111222,11111222' 
TCOON,ioos:station:TCOON:003:1,2011-01-08T22:00:00Z,26.8015,-97.4706,0.0,8.4,120.0,9.6,'11111222,11111222,11111222' 
TCOON,ioos:station:TCOON:003:1,2011-01-08T23:00:00Z,26.8015,-97.4706,0.0,8.4,119.0,9.3,'11111222,11111222,11111222' 
TCOON,ioos:station:TCOON:003:1,2011-01-09T00:00:00Z,26.8015,-97.4706,0.0,7.2,113.0,8.0,'11111222,11111222,11111222' 
TCOON,ioos:station:TCOON:003:1,2011-01-09T01:00:00Z,26.8015,-97.4706,0.0,6.5,118.0,7.4,'11111222,11111222,11111222' 
TCOON,ioos:station:TCOON:003:1,2011-01-09T02:00:00Z,26.8015,-97.4706,0.0,7.6,125.0,8.8,'11111222,11111222,11111222' 
TCOON,ioos:station:TCOON:003:1,2011-01-09T03:00:00Z,26.8015,-97.4706,0.0,8.9,131.0,10.5,'11111222,11111222,11111222' 
TCOON,ioos:station:TCOON:003:1,2011-01-09T04:00:00Z,26.8015,-97.4706,0.0,9.8,128.0,11.9,'11111222,11111222,11111222' 
TCOON,ioos:station:TCOON:003:1,2011-01-09T05:00:00Z,26.8015,-97.4706,0.0,9.8,127.0,11.1,'11111222,11111222,11111222' 
TCOON,ioos:station:TCOON:003:1,2011-01-09T06:00:00Z,26.8015,-97.4706,0.0,9.4,134.0,11.5,'11111222,11111222,11111222' 
TCOON,ioos:station:TCOON:003:1,2011-01-09T07:00:00Z,26.8015,-97.4706,0.0,9.9,131.0,12.1,'11111222,11111222,11111222' 
TCOON,ioos:station:TCOON:003:1,2011-01-09T08:00:00Z,26.8015,-97.4706,0.0,10.5,132.0,12.7,'11111222,11111222,11111222' 
TCOON,ioos:station:TCOON:003:1,2011-01-09T09:00:00Z,26.8015,-97.4706,0.0,12.4,150.0,14.8,'11111222,11111222,11111222' 
TCOON,ioos:station:TCOON:003:1,2011-01-09T10:00:00Z,26.8015,-97.4706,0.0,8.5,167.0,9.8,'11111222,11111222,11111222' 
TCOON,ioos:station:TCOON:003:1,2011-01-09T11:00:00Z,26.8015,-97.4706,0.0,9.3,298.0,11.3,'11111222,11111222,11111222' 
TCOON,ioos:station:TCOON:003:1,2011-01-09T12:00:00Z,26.8015,-97.4706,0.0,9.4,282.0,11.3,'11111222,11111222,11111222' 